Weather in Saltak'yal

Russia / Mari El Republic     56°42′28″N   48°55′35″E
В апреле 2022 года жителям России запретили посещать сайт meteo.paraplan.net по решению Генеральной прокуратуры. Аудитория сайта уменьшилась в 10 раз. Владельцы сайта не видят смысла в поддержке погодного сервера в таких условиях. Сайт будет закрыт в октябре.
temp.,
°C
wind,
m/s
gust,
m/s
humid.,
%
clouds,
%
prec.,
mm/h
press.,
hPa
HPBL,
m
25 september, sun
sun2500:00+9ssw2782100 0.0 1009174
03:00+8sse2279100 0.0 101038
06:00+8se2281100 0.0 100933
09:00+10sse2272100 0.0 1009285
12:00+10n0184100 1.6 1008190
15:00+9nw3591100 4.8 1006337
18:00+8nw5896100 8.5 1003512
21:00+7wnw71094100 18.8 1001952
26 september, mon
mon2600:00+7w81393100 2.3 999821
03:00+6sw61194100 3.8 1000656
06:00+7ssw51092100 0.4 1003776
09:00+8se369399 0.6 1005475
12:00+11sse4579100 0.4 1007826
15:00+11sse337282 0.4 1009877
18:00+8se2286100 0.1 101012
21:00+7e2290100 0.1 101229
27 september, tue
tue2700:00+6e4696100 0.0 1013259
03:00+5e4595100 0.1 1014275
06:00+5e3595100 0.3 1016284
09:00+5e4694100 0.4 1017371
12:00+5e3492100 0.1 1019354
15:00+5e3492100 0.1 1019394
18:00+4e3693100 0.0 1020299
21:00+4ese3691100 0.0 1020293
28 september, wed
wed2800:00+4e3689100 0.0 1020323
03:00+4e4783100 0.0 1020318
06:00+3e4983100 0.0 1021358
09:00+4e697134 0.0 1021498
12:00+7e6857100 0.0 1021889
15:00+7ese7954100 0.0 1020978
18:00+5ese71355100 0.0 1021780
21:00+4ese81557100 0.0 1021769
29 september, thu
thu2900:00+3ese81567100 0.1 1021678
03:00+1ese81680100 0.7 1020592
06:00+1e81778100 0.3 1020569
09:00+1e81679100 0.9 1021591
12:00+2e81784100 0.5 1021614
15:00+3ese81784100 1.0 1022702
18:00+4ese71680100 0.9 1023764
21:00+5ese71575100 1.3 1024768